When you browse on this site, cookies collect data to enhance your experience and personalize the content and advertising you see.
Visit our Privacy Policy to learn more. By continuing to use the site, you agree to this use of cookies and data.
  • In Deutschland
  • Länderverzeichnis
  • Für 7 Tage
  • Wassertemperatur
  • Wetterkarte
  • Widgets
  • user-avatar
    Anmelden

    Stündliche Wetter Newcastle

    Heute, 22 August, Donnerstag

    Zeit Temperatur Niederschläge Wind Luftdruck Luftfeuchtigkeit
    00:00 +12°C° 0 mm 7 m/S 760 mmHg 59%
    01:00 +12°C° 0 mm 8 m/S 759 mmHg 60%
    02:00 +12°C° 0 mm 8 m/S 759 mmHg 61%
    03:00 +12°C° 0 mm 8 m/S 759 mmHg 62%
    04:00 +12°C° 0 mm 8 m/S 758 mmHg 64%
    05:00 +12°C° 0 mm 8 m/S 758 mmHg 62%
    06:00 +12°C° 0 mm 8 m/S 758 mmHg 59%
    07:00 +13°C° 0 mm 8 m/S 758 mmHg 56%
    08:00 +15°C° 0 mm 8 m/S 758 mmHg 51%
    09:00 +17°C° 0 mm 8 m/S 758 mmHg 46%
    10:00 +18°C° 0 mm 8 m/S 758 mmHg 42%
    11:00 +20°C° 0 mm 8 m/S 758 mmHg 40%
    12:00 +19°C° 0 mm 9 m/S 759 mmHg 38%
    13:00 +21°C° 0 mm 9 m/S 759 mmHg 36%
    14:00 +18°C° 0 mm 9 m/S 759 mmHg 41%
    15:00 +16°C° 0 mm 9 m/S 760 mmHg 46%
    16:00 +15°C° 0 mm 9 m/S 761 mmHg 50%
    17:00 +13°C° 0 mm 9 m/S 762 mmHg 52%
    18:00 +12°C° 0 mm 8 m/S 763 mmHg 54%
    19:00 +11°C° 0 mm 8 m/S 764 mmHg 57%
    20:00 +11°C° 0 mm 8 m/S 764 mmHg 58%
    21:00 +11°C° 0 mm 8 m/S 765 mmHg 60%
    22:00 +10°C° 0 mm 6 m/S 766 mmHg 64%
    23:00 +10°C° 0 mm 6 m/S 766 mmHg 65%

    Morgen, 23 August, Freitag

    Zeit Temperatur Niederschläge Wind Luftdruck Luftfeuchtigkeit
    00:00 +9°C° 0 mm 6 m/S 766 mmHg 66%
    01:00 +9°C° 0 mm 6 m/S 766 mmHg 67%
    02:00 +8°C° 0 mm 6 m/S 766 mmHg 68%
    03:00 +7°C° 0 mm 6 m/S 766 mmHg 69%
    04:00 +6°C° 0 mm 5 m/S 767 mmHg 70%
    05:00 +6°C° 0 mm 5 m/S 767 mmHg 69%
    06:00 +5°C° 0 mm 5 m/S 768 mmHg 69%
    07:00 +5°C° 0 mm 5 m/S 768 mmHg 68%
    08:00 +8°C° 0 mm 4 m/S 768 mmHg 62%
    09:00 +11°C° 0 mm 4 m/S 768 mmHg 56%
    10:00 +14°C° 0 mm 4 m/S 769 mmHg 49%
    11:00 +16°C° 0 mm 3 m/S 768 mmHg 47%
    12:00 +18°C° 0 mm 2 m/S 768 mmHg 45%
    13:00 +19°C° 0 mm 2 m/S 767 mmHg 43%
    14:00 +18°C° 0 mm 2 m/S 767 mmHg 45%
    15:00 +18°C° 0 mm 2 m/S 766 mmHg 47%
    16:00 +17°C° 0 mm 2 m/S 766 mmHg 49%
    17:00 +15°C° 0 mm 2 m/S 766 mmHg 60%
    18:00 +13°C° 0 mm 2 m/S 767 mmHg 70%
    19:00 +9°C° 0 mm 2 m/S 767 mmHg 81%
    20:00 +9°C° 0 mm 3 m/S 767 mmHg 83%
    21:00 +8°C° 0 mm 3 m/S 767 mmHg 86%
    22:00 +8°C° 0 mm 3 m/S 767 mmHg 89%
    23:00 +7°C° 0 mm 3 m/S 767 mmHg 89%

    übermorgen, 24 August, Samstag

    Zeit Temperatur Niederschläge Wind Luftdruck Luftfeuchtigkeit
    00:00 +7°C° 0 mm 3 m/S 767 mmHg 89%
    01:00 +5°C° 0 mm 3 m/S 766 mmHg 89%
    02:00 +5°C° 0 mm 3 m/S 766 mmHg 89%
    03:00 +5°C° 0 mm 3 m/S 765 mmHg 89%
    04:00 +4°C° 0 mm 3 m/S 765 mmHg 88%
    05:00 +5°C° 0 mm 4 m/S 765 mmHg 82%
    06:00 +5°C° 0 mm 4 m/S 765 mmHg 76%
    07:00 +5°C° 0 mm 4 m/S 765 mmHg 70%
    08:00 +9°C° 0 mm 5 m/S 765 mmHg 58%
    09:00 +14°C° 0 mm 6 m/S 765 mmHg 46%
    10:00 +17°C° 0 mm 6 m/S 765 mmHg 34%
    11:00 +20°C° 0 mm 6 m/S 764 mmHg 34%
    12:00 +21°C° 0 mm 6 m/S 763 mmHg 33%
    13:00 +23°C° 0 mm 6 m/S 762 mmHg 33%
    14:00 +23°C° 0 mm 6 m/S 762 mmHg 34%
    15:00 +23°C° 0 mm 6 m/S 761 mmHg 36%
    16:00 +23°C° 0 mm 5 m/S 761 mmHg 38%
    17:00 +21°C° 0 mm 5 m/S 762 mmHg 45%
    18:00 +19°C° 0 mm 4 m/S 762 mmHg 52%
    19:00 +17°C° 0 mm 4 m/S 762 mmHg 59%
    20:00 +16°C° 0 mm 3 m/S 762 mmHg 63%
    21:00 +14°C° 0 mm 3 m/S 762 mmHg 68%
    22:00 +13°C° 0 mm 3 m/S 762 mmHg 72%
    23:00 +12°C° 0 mm 3 m/S 762 mmHg 76%

    25 August, Sonntag

    Zeit Temperatur Niederschläge Wind Luftdruck Luftfeuchtigkeit
    00:00 +12°C° 0 mm 3 m/S 762 mmHg 79%
    01:00 +11°C° 0 mm 3 m/S 761 mmHg 83%
    02:00 +11°C° 0 mm 3 m/S 761 mmHg 86%
    03:00 +10°C° 0 mm 3 m/S 761 mmHg 88%
    04:00 +10°C° 0 mm 3 m/S 761 mmHg 90%
    05:00 +10°C° 0 mm 3 m/S 761 mmHg 90%
    06:00 +10°C° 0 mm 3 m/S 761 mmHg 89%
    07:00 +10°C° 0 mm 4 m/S 762 mmHg 89%
    08:00 +13°C° 0 mm 4 m/S 761 mmHg 73%
    09:00 +17°C° 0 mm 4 m/S 761 mmHg 58%
    10:00 +21°C° 0 mm 4 m/S 761 mmHg 42%
    11:00 +22°C° 0 mm 4 m/S 761 mmHg 36%
    12:00 +24°C° 0 mm 3 m/S 760 mmHg 31%
    13:00 +25°C° 0 mm 3 m/S 760 mmHg 25%
    14:00 +25°C° 0 mm 3 m/S 760 mmHg 27%
    15:00 +25°C° 0 mm 3 m/S 759 mmHg 28%
    16:00 +25°C° 0 mm 3 m/S 759 mmHg 30%
    17:00 +22°C° 0 mm 4 m/S 760 mmHg 40%
    18:00 +20°C° 0 mm 5 m/S 761 mmHg 50%
    19:00 +16°C° 0 mm 7 m/S 761 mmHg 60%
    20:00 +16°C° 0 mm 6 m/S 762 mmHg 69%
    21:00 +15°C° 0 mm 6 m/S 762 mmHg 77%
    22:00 +14°C° 0 mm 6 m/S 763 mmHg 86%
    23:00 +14°C° 0.1 mm 5 m/S 763 mmHg 86%

    26 August, Montag

    Zeit Temperatur Niederschläge Wind Luftdruck Luftfeuchtigkeit
    00:00 +14°C° 0.1 mm 5 m/S 763 mmHg 86%
    01:00 +14°C° 0.1 mm 4 m/S 763 mmHg 87%
    02:00 +13°C° 0.2 mm 4 m/S 763 mmHg 88%
    03:00 +13°C° 0.2 mm 4 m/S 763 mmHg 88%
    04:00 +13°C° 0.2 mm 3 m/S 763 mmHg 89%
    05:00 +12°C° 0.6 mm 3 m/S 763 mmHg 91%
    06:00 +12°C° 0.6 mm 3 m/S 764 mmHg 92%
    07:00 +11°C° 0.6 mm 3 m/S 765 mmHg 93%
    08:00 +13°C° 0.4 mm 4 m/S 765 mmHg 89%
    09:00 +14°C° 0.4 mm 4 m/S 765 mmHg 84%
    10:00 +15°C° 0.4 mm 4 m/S 765 mmHg 80%
    11:00 +15°C° 0.4 mm 4 m/S 765 mmHg 78%
    12:00 +15°C° 0.4 mm 5 m/S 765 mmHg 77%
    13:00 +15°C° 0.4 mm 5 m/S 764 mmHg 75%
    14:00 +15°C° 0.1 mm 5 m/S 764 mmHg 74%
    15:00 +15°C° 0.1 mm 5 m/S 764 mmHg 72%
    16:00 +15°C° 0.1 mm 6 m/S 764 mmHg 71%
    17:00 +14°C° 0.2 mm 5 m/S 765 mmHg 75%
    18:00 +13°C° 0.2 mm 4 m/S 765 mmHg 79%
    19:00 +12°C° 0.2 mm 4 m/S 766 mmHg 84%
    20:00 +12°C° 0.1 mm 3 m/S 766 mmHg 84%
    21:00 +12°C° 0.1 mm 3 m/S 767 mmHg 85%
    22:00 +12°C° 0.1 mm 3 m/S 767 mmHg 85%
    23:00 +12°C° 0.4 mm 3 m/S 767 mmHg 88%

    27 August, Dienstag

    Zeit Temperatur Niederschläge Wind Luftdruck Luftfeuchtigkeit
    00:00 +12°C° 0.4 mm 3 m/S 767 mmHg 90%
    01:00 +12°C° 0.4 mm 2 m/S 767 mmHg 93%
    02:00 +12°C° 0.8 mm 2 m/S 767 mmHg 93%
    03:00 +11°C° 0.8 mm 3 m/S 766 mmHg 94%
    04:00 +10°C° 0.8 mm 3 m/S 766 mmHg 95%
    05:00 +11°C° 0.4 mm 3 m/S 767 mmHg 94%
    06:00 +12°C° 0.4 mm 2 m/S 767 mmHg 93%
    07:00 +12°C° 0.4 mm 2 m/S 768 mmHg 93%
    08:00 +13°C° 0.4 mm 2 m/S 768 mmHg 91%
    09:00 +12°C° 0.4 mm 3 m/S 767 mmHg 89%
    10:00 +13°C° 0.4 mm 3 m/S 767 mmHg 87%
    11:00 +13°C° 0.3 mm 3 m/S 767 mmHg 84%
    12:00 +13°C° 0.3 mm 3 m/S 767 mmHg 82%
    13:00 +13°C° 0.3 mm 3 m/S 766 mmHg 79%
    14:00 +14°C° 0 mm 3 m/S 766 mmHg 75%
    15:00 +15°C° 0 mm 2 m/S 766 mmHg 72%
    16:00 +15°C° 0 mm 2 m/S 766 mmHg 68%
    17:00 +14°C° 0.1 mm 2 m/S 767 mmHg 74%
    18:00 +14°C° 0.1 mm 2 m/S 767 mmHg 79%
    19:00 +13°C° 0.1 mm 1 m/S 768 mmHg 85%
    20:00 +13°C° 0.3 mm 1 m/S 768 mmHg 87%
    21:00 +12°C° 0.3 mm 1 m/S 768 mmHg 90%
    22:00 +12°C° 0.3 mm 1 m/S 768 mmHg 92%
    23:00 +12°C° 0.4 mm 1 m/S 768 mmHg 93%
    Mehr zeigen